| time (UTC) | temp C | wind direction | speed KPH | gust KPH | rain 1hr cm | rain 24hr cm | rain mn cm | humidity % | barometer mb |
| 20260508141518 | 13 | 211 | 3.2 | 4.8 | 0.00 | 0.00 | 0.00 | 53 | 1015.5 |
| 20260508140936 | 13 | 236 | 4.8 | 6.4 | 0.00 | 0.00 | 0.00 | 53 | 1015.5 |
| 20260508135748 | 12 | 101 | 0.0 | 1.6 | 0.00 | 0.00 | 0.00 | 59 | 1015.2 |
| 20260508135146 | 12 | 148 | 4.8 | 6.4 | 0.00 | 0.00 | 0.00 | 62 | 1015.2 |
| 20260508134522 | 11 | 317 | 3.2 | 4.8 | 0.00 | 0.00 | 0.00 | 65 | 1015.2 |
| 20260508133916 | 10 | 196 | 1.6 | 3.2 | 0.00 | 0.00 | 0.00 | 68 | 1015.2 |
| 20260508133312 | 10 | 84 | 0.0 | 0.0 | 0.00 | 0.00 | 0.00 | 70 | 1015.2 |
| 20260508132726 | 8 | 109 | 0.0 | 0.0 | 0.00 | 0.00 | 0.00 | 80 | 1015.2 |
| 20260508132122 | 7 | 167 | 0.0 | 0.0 | 0.00 | 0.00 | 0.00 | 89 | 1015.2 |
| 20260508130308 | 5 | 132 | 0.0 | 0.0 | 0.00 | 0.00 | 0.00 | 99 | 1015.2 |
| 20260508125126 | 4 | 112 | 0.0 | 0.0 | 0.00 | 0.00 | 0.00 | 99 | 1015.5 |
| 20260508123936 | 3 | 116 | 0.0 | 0.0 | 0.00 | 0.00 | 0.00 | 99 | 1015.5 |
| 20260508123350 | 3 | 108 | 0.0 | 0.0 | 0.00 | 0.00 | 0.00 | 99 | 1015.2 |
| 20260508122731 | 3 | 113 | 0.0 | 0.0 | 0.00 | 0.00 | 0.00 | 99 | 1015.2 |
| 20260508122120 | 3 | 115 | 0.0 | 0.0 | 0.00 | 0.00 | 0.00 | 99 | 1015.5 |
| 20260508121537 | 2 | 115 | 0.0 | 0.0 | 0.00 | 0.00 | 0.00 | 99 | 1015.5 |
| 20260508120920 | 2 | 116 | 0.0 | 0.0 | 0.00 | 0.00 | 0.00 | 99 | 1015.2 |
| 20260508115710 | 1 | 103 | 0.0 | 0.0 | 0.00 | 0.00 | 0.00 | 99 | 1015.2 |
| 20260508115148 | 1 | 116 | 0.0 | 0.0 | 0.00 | 0.00 | 0.00 | 99 | 1014.9 |
| 20260508114519 | 1 | 120 | 0.0 | 0.0 | 0.00 | 0.00 | 0.00 | 99 | 1014.9 |
| 20260508113930 | 0 | 119 | 0.0 | 0.0 | 0.00 | 0.00 | 0.00 | 99 | 1014.9 |
| 20260508113316 | 0 | 119 | 0.0 | 0.0 | 0.00 | 0.00 | 0.00 | 99 | 1014.9 |
| 20260508112719 | 0 | 119 | 0.0 | 0.0 | 0.00 | 0.00 | 0.00 | 99 | 1014.5 |
| 20260508112143 | 0 | 123 | 0.0 | 0.0 | 0.00 | 0.00 | 0.00 | 99 | 1014.5 |
| 20260508111542 | 0 | 108 | 0.0 | 0.0 | 0.00 | 0.00 | 0.00 | 99 | 1014.5 |
| 20260508110922 | 0 | 104 | 0.0 | 0.0 | 0.00 | 0.00 | 0.00 | 99 | 1014.5 |
| 20260508110326 | 0 | 100 | 0.0 | 0.0 | 0.00 | 0.00 | 0.00 | 99 | 1014.5 |
| 20260508105142 | 0 | 116 | 0.0 | 0.0 | 0.00 | 0.00 | 0.00 | 99 | 1014.5 |
| 20260508103936 | 0 | 92 | 0.0 | 0.0 | 0.00 | 0.00 | 0.00 | 99 | 1014.2 |
| 20260508103338 | 0 | 110 | 0.0 | 0.0 | 0.00 | 0.00 | 0.00 | 99 | 1014.2 |
| 20260508102715 | 0 | 109 | 0.0 | 0.0 | 0.00 | 0.00 | 0.00 | 99 | 1014.2 |
| 20260508102115 | 0 | 109 | 0.0 | 0.0 | 0.00 | 0.00 | 0.00 | 99 | 1014.2 |
| 20260508101512 | 0 | 110 | 0.0 | 0.0 | 0.00 | 0.00 | 0.00 | 99 | 1014.5 |
| 20260508100938 | 0 | 104 | 0.0 | 0.0 | 0.00 | 0.00 | 0.00 | 99 | 1014.2 |
| 20260508100331 | 0 | 104 | 0.0 | 0.0 | 0.00 | 0.00 | 0.00 | 99 | 1014.5 |
| 20260508095748 | 0 | 102 | 0.0 | 0.0 | 0.00 | 0.00 | 0.00 | 99 | 1014.2 |
| 20260508095130 | 0 | 107 | 0.0 | 0.0 | 0.00 | 0.00 | 0.00 | 99 | 1014.2 |
| 20260508094522 | 0 | 100 | 0.0 | 0.0 | 0.00 | 0.00 | 0.00 | 99 | 1014.2 |
| 20260508093943 | 0 | 104 | 0.0 | 0.0 | 0.00 | 0.00 | 0.00 | 99 | 1014.2 |
| 20260508092722 | 0 | 111 | 0.0 | 0.0 | 0.00 | 0.00 | 0.00 | 99 | 1014.5 |
| 20260508092142 | 0 | 116 | 0.0 | 0.0 | 0.00 | 0.00 | 0.00 | 99 | 1014.2 |
| 20260508091528 | 0 | 119 | 0.0 | 0.0 | 0.00 | 0.00 | 0.00 | 99 | 1014.2 |
| 20260508090932 | 0 | 109 | 0.0 | 0.0 | 0.00 | 0.00 | 0.00 | 99 | 1013.8 |
| 20260508085139 | 0 | 114 | 0.0 | 0.0 | 0.00 | 0.00 | 0.00 | 99 | 1013.8 |
| 20260508084547 | 0 | 112 | 0.0 | 0.0 | 0.00 | 0.00 | 0.00 | 99 | 1014.2 |
| 20260508083912 | 0 | 104 | 0.0 | 0.0 | 0.00 | 0.00 | 0.00 | 99 | 1014.2 |
| 20260508083313 | 0 | 106 | 0.0 | 0.0 | 0.00 | 0.00 | 0.00 | 99 | 1013.8 |
| 20260508082735 | 0 | 99 | 0.0 | 0.0 | 0.00 | 0.00 | 0.00 | 99 | 1014.2 |
| 20260508082150 | 0 | 102 | 0.0 | 0.0 | 0.00 | 0.00 | 0.00 | 99 | 1014.2 |
| 20260508081537 | 0 | 107 | 0.0 | 0.0 | 0.00 | 0.00 | 0.00 | 99 | 1014.2 |
| 20260508080328 | 0 | 99 | 0.0 | 0.0 | 0.00 | 0.00 | 0.00 | 99 | 1014.2 |
| 20260508075731 | 0 | 110 | 0.0 | 0.0 | 0.00 | 0.00 | 0.00 | 99 | 1013.8 |
| 20260508075120 | 1 | 90 | 0.0 | 0.0 | 0.00 | 0.00 | 0.00 | 99 | 1014.2 |
| 20260508074529 | 1 | 112 | 0.0 | 0.0 | 0.00 | 0.00 | 0.00 | 99 | 1014.2 |
| 20260508073327 | 1 | 125 | 0.0 | 0.0 | 0.00 | 0.00 | 0.00 | 99 | 1014.2 |
| 20260508072733 | 1 | 121 | 0.0 | 0.0 | 0.00 | 0.00 | 0.00 | 99 | 1014.2 |
| 20260508072115 | 1 | 122 | 0.0 | 0.0 | 0.00 | 0.00 | 0.00 | 99 | 1014.2 |
| 20260508071537 | 1 | 115 | 0.0 | 0.0 | 0.00 | 0.00 | 0.00 | 99 | 1014.5 |
| 20260508070951 | 1 | 104 | 0.0 | 0.0 | 0.00 | 0.00 | 0.00 | 99 | 1014.2 |
| 20260508070338 | 1 | 98 | 0.0 | 0.0 | 0.00 | 0.00 | 0.00 | 99 | 1014.5 |
| 20260508065738 | 1 | 78 | 0.0 | 0.0 | 0.00 | 0.00 | 0.00 | 99 | 1014.2 |
| 20260508065133 | 1 | 120 | 0.0 | 0.0 | 0.00 | 0.00 | 0.00 | 99 | 1014.5 |
| 20260508064520 | 1 | 127 | 0.0 | 0.0 | 0.00 | 0.00 | 0.00 | 99 | 1014.5 |
| 20260508063925 | 1 | 100 | 0.0 | 0.0 | 0.00 | 0.00 | 0.00 | 99 | 1014.5 |
| 20260508063318 | 1 | 112 | 0.0 | 0.0 | 0.00 | 0.00 | 0.00 | 99 | 1014.5 |
| 20260508062742 | 1 | 119 | 0.0 | 0.0 | 0.00 | 0.00 | 0.00 | 99 | 1014.5 |
| 20260508062146 | 1 | 114 | 0.0 | 0.0 | 0.00 | 0.00 | 0.00 | 99 | 1014.9 |
| 20260508061530 | 1 | 84 | 0.0 | 0.0 | 0.00 | 0.00 | 0.00 | 99 | 1014.5 |
| 20260508060909 | 1 | 102 | 0.0 | 0.0 | 0.00 | 0.00 | 0.00 | 99 | 1014.5 |
| 20260508060341 | 1 | 108 | 0.0 | 0.0 | 0.00 | 0.00 | 0.00 | 99 | 1014.5 |
| 20260508055751 | 1 | 114 | 0.0 | 0.0 | 0.00 | 0.00 | 0.00 | 99 | 1014.5 |
| 20260508055141 | 1 | 111 | 0.0 | 0.0 | 0.00 | 0.00 | 0.00 | 99 | 1014.5 |
| 20260508054544 | 1 | 113 | 0.0 | 0.0 | 0.00 | 0.00 | 0.00 | 98 | 1014.9 |
| 20260508052738 | 2 | 105 | 0.0 | 0.0 | 0.00 | 0.00 | 0.00 | 98 | 1015.2 |
| 20260508052132 | 2 | 105 | 0.0 | 0.0 | 0.00 | 0.00 | 0.00 | 98 | 1014.9 |
| 20260508051526 | 2 | 105 | 0.0 | 0.0 | 0.00 | 0.00 | 0.00 | 98 | 1015.2 |
| 20260508050945 | 2 | 105 | 0.0 | 0.0 | 0.00 | 0.00 | 0.00 | 98 | 1015.2 |
| 20260508050309 | 2 | 105 | 0.0 | 0.0 | 0.00 | 0.00 | 0.00 | 98 | 1015.2 |
| 20260508045724 | 2 | 122 | 0.0 | 0.0 | 0.00 | 0.00 | 0.00 | 98 | 1015.2 |
| 20260508045128 | 2 | 140 | 0.0 | 0.0 | 0.00 | 0.00 | 0.00 | 97 | 1015.2 |
| 20260508044542 | 2 | 130 | 0.0 | 0.0 | 0.00 | 0.00 | 0.00 | 97 | 1014.9 |
| 20260508043936 | 2 | 99 | 0.0 | 0.0 | 0.00 | 0.00 | 0.00 | 97 | 1014.9 |
| 20260508043347 | 2 | 111 | 0.0 | 0.0 | 0.00 | 0.00 | 0.00 | 97 | 1014.9 |
| 20260508042723 | 2 | 104 | 0.0 | 0.0 | 0.00 | 0.00 | 0.00 | 96 | 1015.2 |
| 20260508042141 | 2 | 104 | 0.0 | 0.0 | 0.00 | 0.00 | 0.00 | 96 | 1014.9 |
| 20260508041532 | 3 | 104 | 0.0 | 0.0 | 0.00 | 0.00 | 0.00 | 96 | 1014.9 |
| 20260508040318 | 3 | 102 | 0.0 | 0.0 | 0.00 | 0.00 | 0.00 | 96 | 1015.2 |
| 20260508035120 | 3 | 110 | 0.0 | 0.0 | 0.00 | 0.00 | 0.00 | 95 | 1015.2 |
| 20260508034526 | 3 | 109 | 0.0 | 0.0 | 0.00 | 0.00 | 0.00 | 95 | 1015.2 |
| 20260508033916 | 3 | 114 | 0.0 | 0.0 | 0.00 | 0.00 | 0.00 | 95 | 1015.2 |
| 20260508033321 | 3 | 110 | 0.0 | 0.0 | 0.00 | 0.00 | 0.00 | 94 | 1015.2 |
| 20260508032734 | 3 | 104 | 0.0 | 0.0 | 0.00 | 0.00 | 0.00 | 93 | 1014.9 |
| 20260508032147 | 3 | 104 | 0.0 | 0.0 | 0.00 | 0.00 | 0.00 | 93 | 1015.2 |
| 20260508031526 | 3 | 104 | 0.0 | 0.0 | 0.00 | 0.00 | 0.00 | 92 | 1014.9 |
| 20260508030931 | 4 | 104 | 0.0 | 0.0 | 0.00 | 0.00 | 0.00 | 92 | 1015.2 |
| 20260508030311 | 4 | 105 | 0.0 | 0.0 | 0.00 | 0.00 | 0.00 | 91 | 1014.9 |
| 20260508025719 | 4 | 113 | 0.0 | 0.0 | 0.00 | 0.00 | 0.00 | 91 | 1015.2 |
| 20260508025114 | 4 | 113 | 0.0 | 0.0 | 0.00 | 0.00 | 0.00 | 89 | 1014.9 |
| 20260508024525 | 4 | 123 | 0.0 | 0.0 | 0.00 | 0.00 | 0.00 | 89 | 1014.9 |
| 20260508023946 | 4 | 119 | 0.0 | 0.0 | 0.00 | 0.00 | 0.00 | 89 | 1014.9 |
| 20260508023341 | 5 | 121 | 0.0 | 0.0 | 0.00 | 0.00 | 0.00 | 89 | 1014.9 |
| 20260508022723 | 5 | 99 | 0.0 | 0.0 | 0.00 | 0.00 | 0.00 | 88 | 1014.9 |
| 20260508021515 | 5 | 105 | 0.0 | 0.0 | 0.00 | 0.00 | 0.00 | 86 | 1014.9 |
| 20260508020945 | 5 | 104 | 0.0 | 0.0 | 0.00 | 0.00 | 0.00 | 85 | 1014.9 |
| 20260508020349 | 6 | 93 | 0.0 | 0.0 | 0.00 | 0.00 | 0.00 | 85 | 1014.5 |
| 20260508015738 | 6 | 104 | 0.0 | 0.0 | 0.00 | 0.00 | 0.00 | 84 | 1014.5 |
| 20260508015145 | 6 | 104 | 0.0 | 0.0 | 0.00 | 0.00 | 0.00 | 83 | 1014.5 |
| 20260508014517 | 6 | 103 | 0.0 | 0.0 | 0.00 | 0.00 | 0.00 | 82 | 1014.5 |
| 20260508012725 | 7 | 108 | 0.0 | 0.0 | 0.00 | 0.00 | 0.00 | 79 | 1014.2 |
| 20260508011528 | 7 | 105 | 0.0 | 0.0 | 0.00 | 0.00 | 0.00 | 76 | 1013.8 |
| 20260508010935 | 8 | 105 | 0.0 | 0.0 | 0.00 | 0.00 | 0.00 | 75 | 1013.8 |
| 20260508010349 | 8 | 108 | 0.0 | 0.0 | 0.00 | 0.00 | 0.00 | 74 | 1013.8 |
| 20260508005736 | 8 | 105 | 0.0 | 0.0 | 0.00 | 0.00 | 0.00 | 71 | 1013.8 |
| 20260508003908 | 10 | 104 | 0.0 | 0.0 | 0.00 | 0.00 | 0.00 | 68 | 1013.5 |
| 20260508003340 | 11 | 95 | 0.0 | 0.0 | 0.00 | 0.00 | 0.00 | 64 | 1013.5 |
| 20260508002734 | 12 | 109 | 0.0 | 0.0 | 0.00 | 0.00 | 0.00 | 48 | 1013.5 |
| 20260508002110 | 13 | 121 | 0.0 | 0.0 | 0.00 | 0.00 | 0.00 | 43 | 1013.8 |
| 20260508001532 | 13 | 145 | 0.0 | 1.6 | 0.00 | 0.00 | 0.00 | 42 | 1013.5 |
| 20260508000949 | 14 | 105 | 0.0 | 0.0 | 0.00 | 0.00 | 0.00 | 41 | 1013.5 |
| 20260508000335 | 14 | 39 | 1.6 | 1.6 | 0.00 | 0.00 | 0.00 | 41 | 1013.5 |
| 20260507235747 | 14 | 119 | 0.0 | 0.0 | 0.00 | 0.00 | 0.00 | 40 | 1013.5 |
| 20260507235119 | 14 | 29 | 3.2 | 3.2 | 0.00 | 0.00 | 0.00 | 39 | 1013.5 |
| 20260507234551 | 14 | 12 | 6.4 | 6.4 | 0.00 | 0.00 | 0.00 | 38 | 1013.5 |
| 20260507233938 | 15 | 271 | 6.4 | 6.4 | 0.00 | 0.00 | 0.00 | 39 | 1013.5 |
| 20260507233347 | 15 | 296 | 1.6 | 3.2 | 0.00 | 0.00 | 0.00 | 38 | 1013.5 |
| 20260507231535 | 15 | 8 | 4.8 | 6.4 | 0.00 | 0.00 | 0.00 | 38 | 1013.2 |
| 20260507225744 | 15 | 10 | 6.4 | 6.4 | 0.00 | 0.00 | 0.00 | 37 | 1013.5 |
| 20260507225120 | 15 | 32 | 1.6 | 1.6 | 0.00 | 0.00 | 0.00 | 37 | 1013.5 |
| 20260507224527 | 15 | 324 | 8.0 | 11.3 | 0.00 | 0.00 | 0.00 | 36 | 1013.5 |
| 20260507223918 | 15 | 291 | 9.7 | 11.3 | 0.00 | 0.00 | 0.00 | 40 | 1013.5 |
| 20260507223338 | 15 | 7 | 3.2 | 4.8 | 0.00 | 0.00 | 0.00 | 38 | 1013.2 |
| 20260507222719 | 15 | 18 | 4.8 | 4.8 | 0.00 | 0.00 | 0.00 | 38 | 1013.5 |
| 20260507221516 | 16 | 181 | 3.2 | 4.8 | 0.00 | 0.00 | 0.00 | 37 | 1013.2 |
| 20260507220312 | 15 | 196 | 3.2 | 3.2 | 0.00 | 0.00 | 0.00 | 37 | 1013.5 |
| 20260507215738 | 15 | 254 | 11.3 | 16.1 | 0.00 | 0.00 | 0.00 | 37 | 1013.2 |
| 20260507215144 | 15 | 357 | 6.4 | 11.3 | 0.00 | 0.00 | 0.00 | 37 | 1013.2 |
| 20260507213944 | 16 | 85 | 6.4 | 9.7 | 0.00 | 0.00 | 0.00 | 36 | 1012.8 |
| 20260507212737 | 16 | 239 | 6.4 | 6.4 | 0.00 | 0.00 | 0.00 | 37 | 1012.8 |
| 20260507211532 | 16 | 355 | 9.7 | 11.3 | 0.00 | 0.00 | 0.00 | 38 | 1012.8 |
| 20260507210928 | 16 | 160 | 4.8 | 4.8 | 0.00 | 0.00 | 0.00 | 35 | 1012.8 |
| 20260507210344 | 16 | 214 | 4.8 | 6.4 | 0.00 | 0.00 | 0.00 | 35 | 1012.5 |
| 20260507204547 | 16 | 236 | 6.4 | 14.5 | 0.00 | 0.00 | 0.00 | 34 | 1012.8 |
| 20260507202737 | 16 | 359 | 6.4 | 9.7 | 0.00 | 0.00 | 0.00 | 35 | 1012.8 |
| 20260507202152 | 16 | 184 | 6.4 | 9.7 | 0.00 | 0.00 | 0.00 | 33 | 1012.5 |
| 20260507201538 | 16 | 20 | 6.4 | 6.4 | 0.00 | 0.00 | 0.00 | 34 | 1012.8 |
| 20260507200938 | 16 | 290 | 6.4 | 11.3 | 0.00 | 0.00 | 0.00 | 35 | 1012.8 |
| 20260507195752 | 15 | 6 | 6.4 | 6.4 | 0.00 | 0.00 | 0.00 | 36 | 1012.8 |
| 20260507195151 | 16 | 262 | 9.7 | 11.3 | 0.00 | 0.00 | 0.00 | 36 | 1012.8 |
| 20260507194514 | 15 | 344 | 6.4 | 6.4 | 0.00 | 0.00 | 0.00 | 35 | 1012.8 |
| 20260507193951 | 15 | 274 | 9.7 | 16.1 | 0.00 | 0.00 | 0.00 | 36 | 1012.8 |
| 20260507192732 | 16 | 250 | 6.4 | 9.7 | 0.00 | 0.00 | 0.00 | 34 | 1012.8 |
| 20260507192146 | 16 | 20 | 6.4 | 9.7 | 0.00 | 0.00 | 0.00 | 33 | 1012.8 |
| 20260507191535 | 16 | 140 | 4.8 | 9.7 | 0.00 | 0.00 | 0.00 | 34 | 1012.8 |
| 20260507190936 | 15 | 149 | 3.2 | 6.4 | 0.00 | 0.00 | 0.00 | 36 | 1012.8 |
| 20260507185724 | 15 | 354 | 6.4 | 9.7 | 0.00 | 0.00 | 0.00 | 33 | 1013.2 |
| 20260507185150 | 15 | 29 | 4.8 | 6.4 | 0.00 | 0.00 | 0.00 | 33 | 1012.8 |
| 20260507184549 | 16 | 223 | 4.8 | 9.7 | 0.00 | 0.00 | 0.00 | 34 | 1012.8 |
| 20260507183952 | 16 | 318 | 12.9 | 14.5 | 0.00 | 0.00 | 0.00 | 35 | 1013.2 |
| 20260507183308 | 16 | 179 | 3.2 | 4.8 | 0.00 | 0.00 | 0.00 | 37 | 1013.2 |
| 20260507182714 | 15 | 206 | 4.8 | 6.4 | 0.00 | 0.00 | 0.00 | 36 | 1013.2 |
| 20260507182150 | 15 | 281 | 6.4 | 11.3 | 0.00 | 0.00 | 0.00 | 35 | 1012.8 |
| 20260507181510 | 15 | 104 | 1.6 | 3.2 | 0.00 | 0.00 | 0.00 | 34 | 1012.8 |
| 20260507180928 | 15 | 31 | 6.4 | 9.7 | 0.00 | 0.00 | 0.00 | 34 | 1012.8 |
| 20260507180324 | 15 | 49 | 6.4 | 6.4 | 0.00 | 0.00 | 0.00 | 34 | 1012.8 |
| 20260507174520 | 15 | 22 | 11.3 | 16.1 | 0.00 | 0.00 | 0.00 | 38 | 1012.8 |
| 20260507173945 | 15 | 218 | 6.4 | 11.3 | 0.00 | 0.00 | 0.00 | 41 | 1012.8 |
| 20260507172732 | 16 | 215 | 4.8 | 4.8 | 0.00 | 0.00 | 0.00 | 39 | 1012.5 |
| 20260507172129 | 14 | 34 | 6.4 | 6.4 | 0.00 | 0.00 | 0.00 | 44 | 1012.5 |
| 20260507170911 | 15 | 344 | 4.8 | 6.4 | 0.00 | 0.00 | 0.00 | 40 | 1012.8 |
| 20260507170321 | 15 | 206 | 3.2 | 3.2 | 0.00 | 0.00 | 0.00 | 41 | 1012.8 |
| 20260507165750 | 15 | 128 | 0.0 | 0.0 | 0.00 | 0.00 | 0.00 | 40 | 1012.8 |
| 20260507165135 | 15 | 247 | 3.2 | 4.8 | 0.00 | 0.00 | 0.00 | 40 | 1012.8 |
| 20260507163923 | 14 | 145 | 4.8 | 4.8 | 0.00 | 0.00 | 0.00 | 45 | 1012.8 |
| 20260507162722 | 14 | 352 | 8.0 | 11.3 | 0.00 | 0.00 | 0.00 | 43 | 1012.8 |
| 20260507162152 | 14 | 268 | 6.4 | 9.7 | 0.00 | 0.00 | 0.00 | 42 | 1012.8 |
| 20260507161555 | 14 | 112 | 4.8 | 9.7 | 0.00 | 0.00 | 0.00 | 42 | 1012.8 |
| 20260507160923 | 14 | 52 | 8.0 | 14.5 | 0.00 | 0.00 | 0.00 | 43 | 1012.8 |
| 20260507160346 | 13 | 156 | 4.8 | 6.4 | 0.00 | 0.00 | 0.00 | 44 | 1013.2 |
| 20260507155731 | 14 | 358 | 3.2 | 4.8 | 0.00 | 0.00 | 0.00 | 41 | 1012.8 |
| 20260507155123 | 14 | 264 | 6.4 | 11.3 | 0.00 | 0.00 | 0.00 | 42 | 1013.2 |
| 20260507154519 | 14 | 255 | 4.8 | 4.8 | 0.00 | 0.00 | 0.00 | 48 | 1012.8 |
| 20260507153911 | 13 | 54 | 6.4 | 9.7 | 0.00 | 0.00 | 0.00 | 44 | 1013.2 |
| 20260507153316 | 13 | 328 | 8.0 | 9.7 | 0.00 | 0.00 | 0.00 | 43 | 1012.8 |
| 20260507152750 | 13 | 8 | 6.4 | 9.7 | 0.00 | 0.00 | 0.00 | 46 | 1012.8 |
| 20260507151534 | 12 | 210 | 1.6 | 3.2 | 0.00 | 0.00 | 0.00 | 46 | 1012.8 |
| 20260507150347 | 12 | 346 | 1.6 | 3.2 | 0.00 | 0.00 | 0.00 | 50 | 1012.8 |
| 20260507145715 | 12 | 44 | 3.2 | 3.2 | 0.00 | 0.00 | 0.00 | 48 | 1013.2 |
| 20260507145111 | 12 | 39 | 6.4 | 6.4 | 0.00 | 0.00 | 0.00 | 48 | 1012.8 |
| 20260507144515 | 12 | 128 | 0.0 | 0.0 | 0.00 | 0.00 | 0.00 | 49 | 1013.2 |
| 20260507143939 | 12 | 17 | 4.8 | 6.4 | 0.00 | 0.00 | 0.00 | 48 | 1012.8 |
| 20260507143320 | 12 | 346 | 6.4 | 9.7 | 0.00 | 0.00 | 0.00 | 48 | 1013.2 |
| 20260507142123 | 11 | 47 | 1.6 | 3.2 | 0.00 | 0.00 | 0.00 | 51 | 1012.8 |